Flag for United Kingdom Weather past 2 weeks in Stockport, England, United Kingdom

Now
48 °F

Passing clouds.


Feels Like: 42 °F
Forecast: 47 / 61 °F
Wind: 16 mph from Northwest

Location: Manchester Airport

Current Time: Oct 22, 2014 at 1:15:48 AM

Latest Report: Oct 22, 2014 at 12:50 AM


Visibility: N/A

Pressure: 30.12 "Hg

Humidity: 76%

Dew point: 41 °F

Location of StockportLocation

Historic Weather in Stockport — Graph

°F

Stockport temperature yesterday

Maximum temperature yesterday: 55 °F (at 5:50 AM)
Minimum temperature yesterday: 45 °F (at 4:50 PM)
Average temperature yesterday: 50 °F

Past Weeks' High & Low Weather Summary

 TemperatureHumidityPressure
High66 °F (Oct 18, 2:50 PM)100% (Oct 7, 12:20 AM)30.12 "Hg (Oct 7, 12:20 AM)
Low36 °F (Oct 12, 6:50 AM)58% (Oct 21, 1:20 PM)29.18 "Hg (Oct 8, 4:20 PM)
Average52 °F88%29.65 "Hg
* Reported Oct 7 12:20 AM — Oct 22 12:20 AM, Stockport, Weather by CustomWeather, © 2014

Note: Actual official high and low records may vary slightly from our data, if they occured in-between our weather recording intervals... More about our weather records

Advertising

Stockport weather history for previous 24 hours

 ConditionsComfort  
Time TempWeatherWind HumidityBarometerVisibility
12:20 AM
Oct 22
48 °FPassing clouds.14 mph76%30.12 "HgN/A
11:50 PM
Oct 21
45 °FPartly cloudy.6 mph87%30.09 "HgN/A
11:20 PM45 °FPartly cloudy.7 mph87%30.09 "HgN/A
10:50 PM45 °FPassing clouds.10 mph87%30.09 "HgN/A
9:50 PM46 °FPassing clouds.15 mph76%30.07 "HgN/A
9:20 PM46 °FPassing clouds.18 mph71%30.04 "HgN/A
8:50 PM46 °FPassing clouds.17 mph76%30.01 "HgN/A
8:20 PM46 °FPassing clouds.14 mph71%29.98 "HgN/A
7:50 PM46 °FPassing clouds.17 mph66%29.95 "HgN/A
7:20 PM46 °FPassing clouds.18 mph76%29.95 "HgN/A
6:50 PM46 °FBroken clouds.17 mph82%29.92 "HgN/A
6:20 PM45 °FLight rain. Broken clouds.12 mph81%29.89 "HgN/A
5:50 PM45 °FRain. Partly sunny.22 mph81%29.89 "Hg4 mi
5:20 PM45 °FScattered clouds.22 mph81%29.86 "HgN/A
4:50 PM45 °FScattered clouds.17 mph81%29.83 "HgN/A
4:20 PM46 °FScattered clouds.21 mph76%29.80 "HgN/A
3:50 PM48 °FRain. Broken clouds.22 mph71%29.77 "Hg4 mi
3:20 PM46 °FLight rain. Scattered clouds.23 mph82%29.74 "HgN/A
2:50 PM46 °FScattered clouds.21 mph76%29.71 "HgN/A
2:20 PM50 °FRain showers. Partly sunny.29 mph67%29.68 "HgN/A
1:50 PM52 °FRain showers. Partly sunny.26 mph62%29.65 "HgN/A
1:20 PM52 °FScattered showers. Partly sunny.31 mph58%29.65 "HgN/A
12:50 PM52 °FScattered clouds.28 mph62%29.62 "HgN/A
12:20 PM52 °FScattered showers. Scattered clouds.28 mph67%29.59 "HgN/A
11:50 AM52 °FScattered showers. Scattered clouds.25 mph67%29.59 "HgN/A
11:20 AM50 °FScattered showers. Scattered clouds.28 mph71%29.56 "HgN/A
10:50 AM50 °FScattered clouds.23 mph71%29.56 "HgN/A
10:20 AM50 °FMixture of precip. Scattered clouds.20 mph76%29.53 "HgN/A
9:50 AM48 °FScattered showers. Scattered clouds.18 mph87%29.50 "Hg4 mi
9:20 AM50 °FScattered showers. Scattered clouds.23 mph76%29.50 "HgN/A
8:50 AM48 °FScattered showers. Partly sunny.26 mph82%29.47 "HgN/A
8:20 AM50 °FScattered showers. Passing clouds.18 mph82%29.45 "HgN/A
7:50 AM50 °FRain. Passing clouds.23 mph88%29.45 "Hg5 mi
7:20 AM50 °FRain. Passing clouds.22 mph100%29.42 "Hg4 mi
6:50 AM54 °FPassing clouds.24 mph94%29.39 "HgN/A
6:20 AM54 °FLight rain. Partly cloudy.30 mph100%29.36 "Hg4 mi
5:50 AM55 °FPassing clouds.17 mph100%29.36 "HgN/A
5:20 AM54 °FPassing clouds.18 mph100%29.36 "Hg6 mi
4:50 AM54 °FRain. Partly cloudy.23 mph100%29.36 "Hg4 mi
3:50 AM54 °FPartly cloudy.20 mph100%29.45 "HgN/A
3:20 AM54 °FRain. Partly cloudy.17 mph100%29.47 "Hg4 mi
2:50 AM54 °FLight rain. Partly cloudy.17 mph94%29.50 "HgN/A
2:20 AM54 °FPassing clouds.17 mph88%29.53 "HgN/A
1:50 AM54 °FPassing clouds.13 mph88%29.56 "HgN/A
1:20 AM54 °FRain. Passing clouds.17 mph88%29.59 "Hg5 mi
Weather by CustomWeather, © 2014

See weather overviewHow to use our weather pages